81P/Wild 2 (2022)

Japanese version
Home page
Updated on January 20, 2022

---------------------------------------------------------------------

* Profile

* Pictures

* Orbital Elements

Epoch 2022 Jan. 21.0 TT = JDT 2459600.5
T 2022 Dec. 15.66906 TT                                 Rudenko
q   1.5982776            (2000.0)            P               Q
n   0.15362312     Peri.   41.65371     -0.99849552     -0.03839250
a   3.4527489      Node   136.09863     +0.02175721     -0.93276848
e   0.5371000      Incl.    3.23659     +0.05033205     -0.35842571
P   6.42
From 1550 observations 2014 Oct. 18-2021 Dec. 12, mean residual 0".6.
     Nongravitational parameters A1 = +0.01, A2 = -0.0969.

* Finding Charts

* Magnitudes Graph

        m1 = 6.3 + 5 log d + 18.0 log r(t + 20)  [  ,95]  (             - 2023 Mar. 20)
        m1 = 8.2 + 5 log d + 12.5 log r          [95,  ]  (2023 Mar. 20 -             )

---------------------------------------------------------------------

The orbital elements are published on M.P.E.C. 2022-A21.
The charts are made with StellaNavigator Ver.10 (AstroArts).
The magnitudes graphs are made with Comet for Windows.

---------------------------------------------------------------------

Copyright(C) Seiichi Yoshida (comet@aerith.net). All rights reserved.